パンスターズ彗星

C/2024 U1 ( PanSTARRS )

English version
Home page
Updated on March 23, 2025

---------------------------------------------------------------------

・ プロフィール

発見日 2024年10月30日
発見光度 20.8等
発見者 Pan-STARRS 1 telescope (Haleakala)

・ 写真集

・ 軌道要素

Epoch 2025 May 5.0 TT = JDT 2460800.5
T 2024 June 30.44127 TT                                 Pike
q   4.8360670            (2000.0)            P               Q
z  +0.0020177      Peri.  188.07897     +0.08341504     +0.62042154
 +/-0.0000062      Node   270.26388     +0.95233296     +0.18079855
e   0.9902425      Incl.  128.75516     +0.29343461     -0.76314416
From 115 observations 2023 Nov. 13-2025 Jan. 18, mean residual 0".3.

・ 光度変化

        m1 = 6.5 + 5 logΔ + 15.0 log r(t - 200)

---------------------------------------------------------------------

軌道要素はM.P.E.C. 2025-C143に掲載されたものです。
光度グラフはComet for Windowsで作成したものです。

---------------------------------------------------------------------

Copyright(C) Seiichi Yoshida (comet@aerith.net). All rights reserved.